[[{"header":{"parameterUnit":"m.s-1","parameterCategory":1,"la1":30.2991,"la2":30.254,"lo1":-89.0895,"lo2":-89.0444,"dy":0.0017,"dx":0.0017,"nx":28,"ny":28,"refTime":"2024-06-05T21:00:00:Z","depth":0,"parameterNumber":2,"parameterNumberName":"U-component_of_WINDS"},"data":[0,0,0,0,0,0,0,0,0,0,0,0,0,0,0,0,0,0,0,0,0,0,0,0,0,0,0,0,0,0,0,0,0,0,0,0,0,0,0,0,0,0,0,0,0,0,0,0,0,0,0,0,0,0,0,0,0,0,0.9864,0.9865,0,0.9948,0.9949,0.995,0.996,0.996,0.9959,0.9958,1.0045,1.0048,1.0051,0,0,0,0,0,0,0,0,0,0,0,0,0,0.9712,0.9715,0.9864,0.9865,0.9866,0.9948,0.9949,0.995,0.9961,0.996,0.9959,0.9958,1.0044,1.0047,1.0051,0,0,0,0,0,0,0,0,0,0,0,0,0,0.9785,0.9716,0.9864,0.9881,0.9883,0.9948,0.9949,0.9951,0.9961,0.996,0.9958,0.9957,1.0043,1.0047,1.0052,1.0105,0,0,1.0066,1.0068,0,0,0,0,0,0,0,0,0.9781,0.9791,0.9877,0.988,0.9883,0.9943,0.9928,1.0002,0.9961,0.9931,0.9958,0.9957,1.0012,1.0019,1.0037,1.0109,1.0113,1.0066,1.0069,1.0071,1.0072,0,0,0,0,0,0,0,0.9776,0.9787,0.9897,0.9879,0.9882,0.9885,0.9894,0.9942,0.9978,0.9934,0.9935,0.9945,1.0013,1.0033,1.004,1.0114,1.0066,1.007,1.0073,1.0075,1.0235,1.0236,0,0,0,0,0,0,0.9768,0.9783,0.9895,0.99,0.9828,0.9888,0.9899,0.9925,0.9977,0.9984,0.9946,0.9945,1.0026,1.0034,1.0043,1.011,1.0071,1.0075,1.0078,1.0233,1.0235,1.0237,0,0,0,0,0,0,0.9765,0.9778,0.9891,0.9842,0.9856,0.9892,0.9922,0.9927,0.9947,0.9986,0.9992,0.9959,1.0025,1.0036,1.009,1.0113,1.0077,1.0082,1.0232,1.0234,1.0236,1.0244,0,0,0,0,0,0,0.976,0.9776,0.9797,0.9842,0.9859,0.9937,0.9923,0.9929,0.9955,0.9955,1.0001,1.0007,1.0025,1.0083,1.0094,1.0119,1.0085,1.023,1.0233,1.0235,1.0241,1.0246,1.0249,0,0,0,0,0,0.9755,0.9795,0.9798,0.9811,0.9885,0.9938,0.9948,0.9967,0.9957,0.9978,1.0003,1.0006,1.0108,1.0088,1.0101,1.0127,1.0228,1.0232,1.0235,1.024,1.0245,1.0249,0,0,0,0,0,0,0.9752,0.9802,0.9805,0.9861,0.9895,0.994,0.9967,0.9972,1.001,1.0008,1.0031,1.0041,1.0094,1.0116,1.0093,1.0182,1.0167,1.0173,1.0166,1.0172,1.0176,1.017,1.0089,0,0,0,0,0,0.9758,0.9796,0.9838,0.9883,0.99,0.9931,0.9954,0.9966,1.0003,1.0017,1.0046,1.0081,1.0121,1.0147,1.0186,1.0244,1.0255,1.0268,1.0272,1.0276,1.0281,1.0314,1.0321,1.0248,1.0248,1.0248,0,0,0.977,0.9802,0.9825,0.9884,0.9911,0.9951,0.9943,0.9985,1.0015,1.0023,1.0076,1.0099,1.0139,1.0195,1.0222,1.0215,1.0304,1.028,1.0282,1.0286,1.0319,1.0326,1.0332,1.025,1.0249,1.0249,0,0,0.9814,0.9841,0.9884,0.9912,0.9954,0.9974,0.9984,1.0028,1.0043,1.0096,1.0104,1.014,1.0208,1.0237,1.0261,1.0316,1.0321,1.0328,1.035,1.0382,1.0388,1.0393,1.0414,1.0421,1.0333,1.0333,1.0333,0,0.9825,0.9885,0.9904,0.9947,0.9973,0.9983,1.0026,1.0052,1.0105,1.0123,1.0114,1.0201,1.0229,1.0293,1.0307,1.0325,1.0338,1.0324,1.0385,1.0391,1.0396,1.0417,1.0424,1.0334,1.0334,1.0334,1.0334,0,0.9896,0.9938,0.9967,1.0018,1.0047,1.009,1.0116,1.0143,1.0153,1.0174,1.0228,1.0262,1.0309,1.0324,1.0334,1.039,1.0385,1.0381,1.0366,1.0404,1.0423,1.0431,1.0335,1.0335,1.0335,1.0334,0,0,0.9941,1.0003,1.0014,1.0038,1.0085,1.0118,1.0161,1.0207,1.023,1.0266,1.0304,1.0361,1.0358,1.0385,1.0398,1.0426,1.0469,1.0419,1.042,1.0428,1.0534,1.0538,1.0547,1.0472,1.0473,1.0475,1.0532,0,0.9992,1.0069,1.0089,1.0155,1.0194,1.0204,1.0242,1.0275,1.0296,1.0332,1.0355,1.0396,1.0388,1.0405,1.0433,1.0458,1.0491,1.0454,1.0508,1.051,1.0499,1.0557,1.0561,1.0614,1.0539,1.054,1.0541,0,1.0061,1.0099,1.017,1.0214,1.0231,1.0264,1.0309,1.0343,1.0381,1.0394,1.0424,1.0435,1.048,1.0463,1.0526,1.0501,1.0524,1.0539,1.0542,1.0549,1.0529,1.0567,1.063,1.0639,1.0553,1.0552,1.0552,0,1.0089,1.0158,1.0209,1.0229,1.0281,1.0305,1.0327,1.0364,1.0391,1.0429,1.0447,1.0489,1.0513,1.0546,1.0568,1.0553,1.063,1.0614,1.0643,1.0643,1.0661,1.066,1.073,1.0673,1.0672,1.0672,1.0672,0,1.0144,1.0187,1.0223,1.0255,1.0303,1.0325,1.0373,1.0395,1.0428,1.0465,1.0475,1.0509,1.0535,1.0573,1.059,1.0641,1.0651,1.0664,1.0668,1.0664,1.0662,1.068,1.0678,1.0674,1.0674,1.0674,1.0673,0,1.0184,1.0209,1.0266,1.0311,1.0323,1.0357,1.0395,1.0427,1.0447,1.0494,1.0506,1.0538,1.0583,1.0608,1.0664,1.0676,1.0733,1.0735,1.0721,1.0723,1.0751,1.0749,1.0837,1.085,1.0782,1.0783,1.0783,0,1.0218,1.0252,1.03,1.0326,1.0349,1.039,1.0417,1.044,1.0468,1.0514,1.054,1.0586,1.0624,1.0695,1.0724,1.0767,1.0771,1.0799,1.0778,1.0773,1.0774,1.0772,1.0776,1.0803,1.0804,1.0804,1.0805,0,1.0277,1.0288,1.0328,1.0372,1.0405,1.044,1.0476,1.0496,1.0524,1.0555,1.0602,1.0631,1.0689,1.0735,1.078,1.0803,1.0809,1.0811,1.082,1.0817,1.0808,1.0815,1.0732,1.0809,1.0809,1.0808,1.0808,1.0808,1.0317,1.0348,1.0387,1.0431,1.046,1.0493,1.0525,1.055,1.0589,1.0638,1.0649,1.0698,1.0736,1.0798,1.0822,1.0862,1.0856,1.0869,1.0873,1.0876,1.0878,1.0801,1.087,1.087,1.0869,1.0869,1.0869,0,1.0378,1.0404,1.0444,1.0493,1.0528,1.053,1.0569,1.0598,1.0642,1.0677,1.0714,1.0768,1.0812,1.0844,1.089,1.0915,1.0919,1.0926,1.0925,1.0931,1.088,1.0868,1.0922,1.0922,1.0922,1.0922,1.0922,1.0922,1.0414,1.0467,1.0483,1.055,1.0576,1.0625,1.0647,1.0678,1.0706,1.0766,1.0803,1.0823,1.0858,1.0905,1.0946,1.0955,1.0972,1.0979,1.0988,1.094,1.0934,1.0929,1.0918,1.0982,1.0982,1.1036,1.1036,1.1037]},{"header":{"parameterUnit":"m.s-1","parameterCategory":1,"la1":30.2991,"la2":30.254,"lo1":-89.0895,"lo2":-89.0444,"dy":0.0017,"dx":0.0017,"nx":28,"ny":28,"refTime":"2024-06-05T21:00:00:Z","depth":0,"parameterNumber":3,"parameterNumberName":"V-component_of_WINDS"},"data":[0,0,0,0,0,0,0,0,0,0,0,0,0,0,0,0,0,0,0,0,0,0,0,0,0,0,0,0,0,0,0,0,0,0,0,0,0,0,0,0,0,0,0,0,0,0,0,0,0,0,0,0,0,0,0,0,0,0,6.5617,6.5617,0,6.5611,6.5611,6.5611,6.5561,6.556,6.5559,6.5558,6.5551,6.5552,6.5553,0,0,0,0,0,0,0,0,0,0,0,0,0,6.5587,6.5588,6.5617,6.5617,6.5617,6.5611,6.5611,6.5611,6.5561,6.556,6.5558,6.5557,6.5551,6.5552,6.5553,0,0,0,0,0,0,0,0,0,0,0,0,0,6.5592,6.5588,6.5617,6.5592,6.5589,6.5611,6.5611,6.5611,6.5562,6.556,6.5558,6.5556,6.5551,6.5552,6.5554,6.5599,0,0,6.5558,6.5559,0,0,0,0,0,0,0,0,6.5592,6.5593,6.5595,6.5593,6.5591,6.5585,6.5598,6.5607,6.5562,6.5572,6.5558,6.5555,6.5564,6.5564,6.5567,6.5599,6.5599,6.5558,6.5559,6.556,6.556,0,0,0,0,0,0,0,6.5592,6.5593,6.5615,6.5596,6.5593,6.5581,6.5579,6.5599,6.5579,6.5571,6.5568,6.5568,6.5562,6.5566,6.5567,6.5599,6.5558,6.5559,6.556,6.5561,6.5668,6.567,0,0,0,0,0,0,6.5595,6.5593,6.5615,6.5614,6.5587,6.5583,6.5581,6.5589,6.5578,6.5575,6.5569,6.5565,6.5564,6.5565,6.5566,6.562,6.556,6.5561,6.5562,6.5666,6.5669,6.5671,0,0,0,0,0,0,6.5594,6.5597,6.5615,6.5603,6.5604,6.5585,6.5594,6.559,6.5593,6.5577,6.5573,6.5576,6.5563,6.5564,6.5592,6.5619,6.5562,6.5563,6.5664,6.5667,6.567,6.5726,0,0,0,0,0,0,6.5594,6.5597,6.5614,6.5604,6.5605,6.5641,6.5596,6.5591,6.5596,6.559,6.5582,6.5579,6.5562,6.559,6.5593,6.562,6.5564,6.5662,6.5666,6.5669,6.5722,6.5731,6.5739,0,0,0,0,0,6.5593,6.563,6.5615,6.5618,6.5626,6.5642,6.5643,6.5622,6.5598,6.5615,6.5605,6.558,6.5615,6.5593,6.5596,6.5624,6.566,6.5664,6.5669,6.5718,6.5729,6.5738,0,0,0,0,0,0,6.5644,6.5628,6.5612,6.5647,6.5646,6.5634,6.5655,6.5634,6.564,6.5635,6.5608,6.5607,6.5639,6.5634,6.5609,6.5668,6.5633,6.5639,6.567,6.568,6.5688,6.5689,6.5565,0,0,0,0,0,6.566,6.5674,6.566,6.5692,6.5693,6.5674,6.568,6.5664,6.5662,6.5662,6.5653,6.5653,6.5664,6.5671,6.5681,6.5721,6.5719,6.5742,6.575,6.5757,6.5762,6.5783,6.5794,6.5686,6.5686,6.5686,0,0,6.5692,6.5685,6.5696,6.5702,6.57,6.5716,6.5674,6.5692,6.5704,6.5664,6.569,6.5684,6.5681,6.5716,6.573,6.5713,6.5791,6.5762,6.5768,6.5769,6.5789,6.5799,6.5808,6.5689,6.5688,6.5688,0,0,6.5759,6.5755,6.5782,6.578,6.5777,6.5765,6.5771,6.5762,6.5757,6.5782,6.5753,6.5766,6.5786,6.5785,6.5788,6.5855,6.5833,6.5859,6.5902,6.5924,6.5932,6.594,6.5964,6.5973,6.5864,6.5864,6.5864,0,6.5799,6.5822,6.5798,6.5819,6.5823,6.5788,6.5815,6.5815,6.5815,6.5819,6.5799,6.5823,6.5819,6.5853,6.587,6.5873,6.588,6.586,6.5933,6.594,6.5947,6.597,6.5979,6.5868,6.5867,6.5867,6.5867,0,6.5872,6.5888,6.591,6.5911,6.5918,6.5942,6.5922,6.5932,6.5915,6.5905,6.5931,6.5925,6.5933,6.594,6.5924,6.5972,6.5961,6.5938,6.5902,6.5961,6.5982,6.5991,6.5872,6.5871,6.587,6.5869,0,0,6.597,6.5959,6.5968,6.5968,6.5963,6.5975,6.5997,6.6005,6.6014,6.6015,6.6034,6.6052,6.603,6.6033,6.6016,6.6035,6.609,6.6009,6.6009,6.6025,6.6143,6.6161,6.6172,6.6075,6.6076,6.6078,6.6144,0,6.6035,6.6073,6.6053,6.6093,6.6108,6.6076,6.6096,6.6095,6.6086,6.6097,6.6087,6.61,6.6071,6.6072,6.6089,6.608,6.6113,6.6074,6.6092,6.6093,6.6094,6.6183,6.6202,6.6265,6.6152,6.6153,6.6154,0,6.6115,6.6121,6.6163,6.6155,6.6161,6.6179,6.6185,6.6196,6.6194,6.6186,6.619,6.6169,6.6191,6.6156,6.6186,6.6161,6.6167,6.6163,6.6165,6.6166,6.6127,6.6187,6.6284,6.6294,6.6167,6.6166,6.6165,0,6.6184,6.6202,6.6229,6.6231,6.6222,6.6236,6.6233,6.6229,6.6236,6.6241,6.6244,6.6252,6.6256,6.6263,6.6245,6.6221,6.6278,6.6241,6.6272,6.6273,6.6286,6.6285,6.6386,6.6289,6.6289,6.6289,6.6289,0,6.6258,6.6286,6.626,6.6277,6.6307,6.6284,6.6314,6.6307,6.6305,6.632,6.6293,6.6308,6.6283,6.6296,6.6282,6.6309,6.6311,6.6306,6.6302,6.6309,6.6309,6.6312,6.6308,6.6291,6.6291,6.629,6.629,0,6.634,6.6324,6.6352,6.6342,6.634,6.6363,6.6354,6.637,6.6359,6.6379,6.6382,6.6366,6.6379,6.6362,6.6374,6.6365,6.6402,6.6392,6.6403,6.64,6.6432,6.643,6.6538,6.6552,6.6447,6.6448,6.6448,0,6.6389,6.6409,6.6401,6.641,6.6409,6.6423,6.6429,6.6407,6.6415,6.6415,6.6431,6.6442,6.645,6.6473,6.6462,6.6472,6.6461,6.6499,6.6462,6.6469,6.6462,6.6462,6.6464,6.6506,6.6508,6.6509,6.6509,0,6.6477,6.6468,6.6478,6.6486,6.6495,6.6499,6.6502,6.6511,6.6488,6.6498,6.6512,6.6518,6.6531,6.6542,6.6549,6.6546,6.6524,6.6521,6.6529,6.6536,6.6542,6.6539,6.6424,6.6519,6.6518,6.6517,6.6516,6.6516,6.6544,6.6561,6.6558,6.6571,6.6571,6.6574,6.6588,6.658,6.6591,6.6599,6.6586,6.6603,6.6602,6.6608,6.6608,6.6621,6.6605,6.6616,6.6619,6.6622,6.6627,6.6539,6.6622,6.6622,6.6622,6.6621,6.6621,0,6.6632,6.6629,6.664,6.6645,6.6655,6.6634,6.6636,6.6646,6.6661,6.6662,6.667,6.6686,6.6698,6.6688,6.6698,6.6711,6.6701,6.6714,6.6713,6.6713,6.6641,6.6634,6.6722,6.6722,6.6722,6.6721,6.6721,6.6721,6.6678,6.6706,6.6697,6.6724,6.6721,6.6738,6.6741,6.6744,6.6744,6.6764,6.6773,6.6767,6.6763,6.6772,6.6782,6.6779,6.6784,6.6801,6.6794,6.6727,6.6718,6.6708,6.6701,6.6802,6.6802,6.6865,6.6865,6.6866]}]]